Regional Weather Roundup
Issued by NWS

Home | Current Version | Previous Version | Text Only | Print | Product List | Glossary On
Versions: 1 2 3 4 5 6 7 8 9 10 11 12 13 14 15 16 17 18 19 20 21 22 23 24 25 26 27 28 29 30 31 32 33 34 35 36 37 38 39 40 41 42 43 44 45 46 47 48 49 50
576
ASUS45 KABQ 092010
RWRNM
NEW MEXICO REGIONAL WEATHER ROUNDUP
NATIONAL WEATHER SERVICE ALBUQUERQUE NM
100 PM MST FRI DEC 09 2016

NOTE: "FAIR" MEANS FEW OR NO CLOUDS BELOW 12,000 FEET AGL WITH NO
       SIGNIFICANT WEATHER OR OBSTRUCTIONS TO VISION.

      THIS PRODUCT IS RELEASED AS TWO VERSIONS.  ONE VERSION NEAR
      THE TOP OF THE HOUR CONTAINING PRELIMINARY DATA FROM ALBUQUERQUE
      AND OTHER STATIONS.  A FINAL VERSION WITH ADDITIONAL DATA IS
      ISSUED ABOUT 10 MINUTES AFTER THE HOUR.

NMZ501-503-504-510>518-092100-
NORTHWEST PLATEAU/NORTHCENTRAL MOUNTAINS

CITY           SKY/WX    TMP DP  RH WIND       PRES   REMARKS
FARMINGTON     FAIR      43  20  39 CALM      30.28F
LOS ALAMOS     FAIR      40  20  45 SE7       30.29F WCI  35
SANTA FE       FAIR      43  24  47 SW12      30.27F
TAOS           FAIR      41  19  42 W10       30.26F
ANGEL FIRE     FAIR      40  21  47 NW9       30.25S WCI  33

$$
NMZ402-403-502-505>509-092100-
WESTCENTRAL MOUNTAINS/SOUTHWEST MOUNTAINS

CITY           SKY/WX    TMP DP  RH WIND       PRES   REMARKS
GALLUP         FAIR      50  30  46 SW8       30.29F
GRANTS         FAIR      49  27  42 N6        30.29F

$$
NMZ407-409-411-412-092100-
SOUTHERN DESERTS

CITY           SKY/WX    TMP DP  RH WIND       PRES   REMARKS
DEMING         FAIR      44  30  57 VRB3      30.33F
LAS CRUCES     FAIR      44  30  57 S6        30.35F
HOLLOMAN AFB   FAIR      41  27  58 VRB3      30.39F
T OR C         FAIR      43  27  53 S5        30.31F

$$
NMZ519>523-092100-
CENTRAL VALLEYS/CENTRAL HIGHLANDS

CITY           SKY/WX    TMP DP  RH WIND       PRES   REMARKS
ALBUQUERQUE    FAIR      41  27  57 SW6       30.32F
DOUBLE EAGLE   MOSUNNY   41  25  52 S5        30.32
MORIARTY ARPT  FAIR      47  23  38 W5        30.28S
CLINES CORNERS FAIR      45  25  45 W20G32    30.26F
BELEN          FAIR      42  27  53 S8        30.32F
SOCORRO        FAIR      45  28  51 SE12G17   30.31F

$$
NMZ524>526-539-540-092100-
SOUTHCENTRAL MOUNTAINS

CITY           SKY/WX    TMP DP  RH WIND       PRES   REMARKS
RUIDOSO        FAIR      55  21  26 E3        30.28F

$$
NMZ527>531-092100-
NORTHEAST HIGHLANDS/NORTHEAST PLAINS

CITY           SKY/WX    TMP DP  RH WIND       PRES   REMARKS
LAS VEGAS      FAIR      54  22  28 SE9       30.17F
RATON          FAIR      50  20  30 CALM      30.12F
CLAYTON        FAIR      56  27  32 E10       30.10S

$$
NMZ532>537-092100-
EASTCENTRAL PLAINS

CITY           SKY/WX    TMP DP  RH WIND       PRES   REMARKS
TUCUMCARI      FAIR      54  30  40 SW21      30.13F
CANNON AFB     FAIR      44  30  58 SW17      30.20F
CLOVIS AIRPORT FAIR      45  28  53 SW18G24   30.20F

$$
NMZ028-029-538-092100-
SOUTHEAST PLAINS

CITY           SKY/WX    TMP DP  RH WIND       PRES   REMARKS
ROSWELL        CLOUDY    33  28  81 S9        30.30F WCI  25
ARTESIA        CLOUDY    34  34 100 S9        30.31F WCI  26
CARLSBAD       NOT AVBL


$$




USA.gov is the U.S. government's official web portal to all federal, state and local government web resources and services.